weather.gov     
National Weather Service

Regional Weather Roundup
NWS Homepage
This page is being discontinued on March 12, 2014.
The same data is available at this site. Please update your bookmarks.
Thank you, and we apologize for the inconvenience.
Please send an email to SR-SRH.Webmaster@noaa.gov with any concerns.


Current Version
Previous Version:    01  02  03  04  05  06  07  08  09  10  11  12  13  14  15  16  17  18  19  20  21  22  23  24  25  26  27  
[Printable]
762
ASUS44 KHUN 251610
RWRHUN

WEATHER ROUNDUP FOR THE TENNESSEE VALLEY
NATIONAL WEATHER SERVICE HUNTSVILLE AL
1000 AM CST SUN JAN 25 2015

ALZ001>004-251700-
NORTHWEST ALABAMA

CITY           SKY/WX    TMP DP  RH WIND       PRES   REMARKS
COURTLAND HCN    N/A     46 N/A N/A S8          N/A
RUSSELLVILLE     N/A     46 N/A N/A MISG        N/A
SHOALS AIRPORT SUNNY     49  36  61 S7        29.81F
SHOALS TVA RES   N/A     46 N/A N/A MISG        N/A
$$

ALZ005>007-016-251700-
NORTH CENTRAL ALABAMA

CITY           SKY/WX    TMP DP  RH WIND       PRES   REMARKS
CULLMAN AG STN   N/A     43 N/A N/A SW8         N/A
DECATUR AP     SUNNY     46  36  68 S10       29.84F
HUNTSVILLE AP  MOSUNNY   48  36  63 S10       29.84F
MERIDIANVILLE  SUNNY     45  32  61 S12       29.84F
REDSTONE ARSN  SUNNY     47  36  65 S10       29.83F
VINEMONT AP    FAIR      44  35  70 S8        29.87F
$$

ALZ008>010-251700-
NORTHEAST ALABAMA

CITY           SKY/WX    TMP DP  RH WIND       PRES   REMARKS
ALBERTVILLE    SUNNY     46  39  76 SW9       29.86F
FORT PAYNE     SUNNY     41  32  70 SW9       29.88F
SCOTTSBORO AP  SUNNY     45  32  61 SW12      29.88F
VALLEY HEAD      N/A     39 N/A N/A MISG        N/A
$$

TNZ076-096-097-251700-
SOUTHEASTERN MIDDLE TENNESSEE

CITY           SKY/WX    TMP DP  RH WIND       PRES   REMARKS
TULLAHOMA      SUNNY     45  34  65 S9        29.80F
WINCHESTER     SUNNY     48  34  57 S12       29.82F
$$

...SURROUNDING SITES...

CITY           SKY/WX    TMP DP  RH WIND       PRES   REMARKS
ATLANTA        MOSUNNY   49  32  52 W9        29.93F
ANNISTON       SUNNY     48  36  63 SW5       29.92F
BIRMINGHAM     SUNNY     49  34  56 SW8       29.91F
CHATTANOOGA    MOSUNNY   45  33  63 S5        29.89S
CORINTH        PTSUNNY   45  36  70 S14       29.76F
DALTON         SUNNY     43  34  70 S8        29.91F
GADSDEN        SUNNY    N/A N/A N/A S5        29.90F
GOLDEN TRNGL   SUNNY     50  39  66 SW9       29.86F
HALEYVILLE     FAIR      45  37  73 S12       29.85F
JACKSON TN     CLOUDY    48  36  63 SW16G24   29.70F
LEWISBURG      FAIR      46  35  65 S13       29.77F
MEMPHIS        CLOUDY    48  35  60 SW14G23   29.73S
MURFREESBORO   FAIR      46  35  65 S9        29.77
NASHVILLE      PTSUNNY   45  34  65 S15       29.75F
OXFORD MS      FAIR      48  36  61 S9G17     29.78F
ROME           SUNNY     43  33  68 SW3       29.90F
SAVANNAH       SUNNY     48  37  66 S12       29.75F
TUPELO         SUNNY     49  38  65 S9        29.81F
TUSCALOOSA     SUNNY     47  37  68 S6        29.92F
$$

...GULF COAST WEATHER...

CITY           SKY/WX    TMP DP  RH WIND       PRES   REMARKS
GULFPORT       SUNNY     54  44  69 SW9       30.02F
PASCAGOULA     SUNNY     56  45  66 S10       30.03F
MOBILE         SUNNY     54  44  69 S13       30.02F
GULF SHORES    SUNNY     57  46  67 SW12      30.05S
PENSACOLA      SUNNY     58  46  64 SW10G17   30.04F
DESTIN         SUNNY     58  45  62 VRB6      30.05F
PANAMA CITY    SUNNY     56  41  57 W5        30.08F
APPALACHICOLA  SUNNY     58  38  47 S5        30.09R
$$





U.S. Dept. of Commerce
NOAA National Weather Service
1325 East West Highway
Silver Spring, MD 20910
E-mail: w-nws.webmaster@noaa.gov
Page last modified: May 16, 2007
NATIONAL WEATHER SERVICE: for Safety, for Work, for Fun - FOR LIFE